No particular awareness of the weather is required.    There are no Weather-warnings


Ulpukkaniemi more information Ulpukkaniemi


Yksityisiä sääasemia lähellä:

Template documentation
and downloads

And another site


Löydät sääaseman tiedot myös:

European Weather Network



Weather Underground säähistoriasivu

Päivittäin yhteenveto Joulukuu 12, 2018 Yksiköt:  Metriset    Englantilaiset   Molemmat
« Edellinen Päivä
Seuraava Päivä »
Päivittäin Viikoittain Kuukausittain Vuosittain Mukautettu
  Tämänhetkinen: Korkea: Matala: Keskiarvo:
Lämpötila: -9.1 °C -17.8 °C -10.6 °C -10.3 °C
Kastepiste: -12.7 °C -17.8 °C -13.4 °C -13.1 °C
Kosteus: 65 % Humidity % 65 % 71 %
Tuulen nopeus: 12.9 km/h 0 km/h 0 km/h 7.9 km/h
Tuulenpuuska: 33.6 km/h 0 km/h - -
Tuuli:WNW - - West
Ilmanpaine: 34560.9 hPa 0 hPa 34496.6 hPa -
Sade: 0 mm      
Historical Graphs
 
 
Taulukkotiedot Joulukuu 12, 2018
Aika Lämpötila Kastepiste Ilmanpaine Tuuli Tuulen nopeus Tuulenpuuska Kosteus Sademäärä (tunneittain)
-17.8 °C -17.8 °C 0 hPa Calm     Humidity % 0 mm
00:04 -10.2 °C -11.4 °C 34537.2 hPa SSE 7.7 km/h 12.9 km/h 87 % 0 mm
00:09 -10.2 °C -11.4 °C 34537.2 hPa SSE 7.7 km/h 12.9 km/h 87 % 0 mm
00:14 -10.3 °C -11.4 °C 34533.8 hPa SSE 7.7 km/h 12.9 km/h 87 % 0 mm
00:19 -10.3 °C -11.6 °C 34533.8 hPa SSE 5.1 km/h 10.3 km/h 86 % 0 mm
00:24 -10.4 °C -11.7 °C 34533.8 hPa SSE 2.6 km/h 10.3 km/h 86 % 0 mm
00:29 -10.4 °C -11.8 °C 34530.4 hPa South 2.6 km/h 7.7 km/h 85 % 0 mm
00:34 -10.3 °C -11.7 °C 34533.8 hPa SW 2.6 km/h 5.1 km/h 85 % 0 mm
00:39 -10.3 °C -11.8 °C 34530.4 hPa SW 2.6 km/h 7.7 km/h 84 % 0 mm
00:44 -10.2 °C -11.8 °C 34527 hPa SW 2.6 km/h 7.7 km/h 83 % 0 mm
00:49 -10.2 °C -11.9 °C 34527 hPa WSW 2.6 km/h 7.7 km/h 81 % 0 mm
00:54 -10.1 °C -12.1 °C 34523.7 hPa West 2.6 km/h 15.6 km/h 79 % 0 mm
00:59 -9.9 °C -12.3 °C 34520.3 hPa WNW 2.6 km/h 25.9 km/h 76 % 0 mm
01:04 -9.8 °C -12.4 °C 34516.9 hPa West 5.1 km/h 25.9 km/h 74 % 0 mm
01:09 -9.8 °C -12.4 °C 34516.9 hPa West 7.7 km/h 20.8 km/h 74 % 0 mm
01:14 -9.9 °C -12.4 °C 34513.5 hPa WSW 5.1 km/h 15.6 km/h 74 % 0 mm
01:19 -9.9 °C -12.4 °C 34513.5 hPa WSW 5.1 km/h 15.6 km/h 74 % 0 mm
01:24 -9.9 °C -12.6 °C 34510.1 hPa West 2.6 km/h 15.6 km/h 73 % 0 mm
01:29 -10.1 °C -12.7 °C 34513.5 hPa WNW 2.6 km/h 12.9 km/h 73 % 0 mm
01:34 -10.1 °C -12.6 °C 34513.5 hPa West 2.6 km/h 12.9 km/h 74 % 0 mm
01:39 -10.1 °C -12.7 °C 34513.5 hPa WSW 2.6 km/h 5.1 km/h 74 % 0 mm
01:44 -10.2 °C -12.6 °C 34513.5 hPa SW 2.6 km/h 2.6 km/h 75 % 0 mm
01:49 -10.2 °C -12.7 °C 34510.1 hPa Calm   2.6 km/h 75 % 0 mm
01:54 -10.1 °C -12.7 °C 34506.7 hPa Calm   10.3 km/h 73 % 0 mm
01:59 -9.9 °C -12.7 °C 34513.5 hPa WNW 2.6 km/h 10.3 km/h 72 % 0 mm
02:04 -10.1 °C -12.8 °C 34513.5 hPa WNW 2.6 km/h 12.9 km/h 72 % 0 mm
02:09 -10.1 °C -12.8 °C 34510.1 hPa WNW 5.1 km/h 12.9 km/h 72 % 0 mm
02:14 -10 °C -12.9 °C 34506.7 hPa West 5.1 km/h 12.9 km/h 71 % 0 mm
02:19 -10.1 °C -12.9 °C 34513.5 hPa West 2.6 km/h 12.9 km/h 71 % 0 mm
02:24 -10.2 °C -13 °C 34513.5 hPa WNW 2.6 km/h 12.9 km/h 71 % 0 mm
02:29 -10.1 °C -13 °C 34513.5 hPa WNW 2.6 km/h 12.9 km/h 71 % 0 mm
02:34 -10.2 °C -13 °C 34513.5 hPa WNW 5.1 km/h 12.9 km/h 71 % 0 mm
02:39 -10.2 °C -13.1 °C 34513.5 hPa West 5.1 km/h 12.9 km/h 71 % 0 mm
02:44 -10.3 °C -13.1 °C 34510.1 hPa West 5.1 km/h 10.3 km/h 72 % 0 mm
02:49 -10.4 °C -13.2 °C 34513.5 hPa WSW 2.6 km/h 7.7 km/h 72 % 0 mm
02:54 -10.4 °C -13.1 °C 34513.5 hPa WSW 2.6 km/h 7.7 km/h 73 % 0 mm
02:59 -10.5 °C -13.1 °C 34513.5 hPa WSW 2.6 km/h 5.1 km/h 73 % 0 mm
03:04 -10.4 °C -13.1 °C 34516.9 hPa Calm   10.3 km/h 73 % 0 mm
03:09 -10.4 °C -13.2 °C 34516.9 hPa Calm   10.3 km/h 72 % 0 mm
03:14 -10.4 °C -13.2 °C 34520.3 hPa West 2.6 km/h 7.7 km/h 72 % 0 mm
03:19 -10.4 °C -13.3 °C 34520.3 hPa West 2.6 km/h 12.9 km/h 71 % 0 mm
03:24 -10.4 °C -13.3 °C 34523.7 hPa WNW 2.6 km/h 15.6 km/h 71 % 0 mm
03:29 -10.4 °C -13.4 °C 34520.3 hPa WNW 5.1 km/h 15.6 km/h 70 % 0 mm
03:34 -10.4 °C -13.4 °C 34520.3 hPa WNW 5.1 km/h 18.2 km/h 70 % 0 mm
03:39 -10.4 °C -13.4 °C 34520.3 hPa WNW 7.7 km/h 18.2 km/h 70 % 0 mm
03:44 -10.4 °C -13.4 °C 34516.9 hPa WNW 10.3 km/h 18.2 km/h 70 % 0 mm
03:49 -10.4 °C -13.4 °C 34516.9 hPa WNW 7.7 km/h 18.2 km/h 70 % 0 mm
03:54 -10.4 °C -13.4 °C 34516.9 hPa West 7.7 km/h 12.9 km/h 70 % 0 mm
03:59 -10.5 °C -13.4 °C 34520.3 hPa West 5.1 km/h 10.3 km/h 71 % 0 mm
04:04 -10.5 °C -13.4 °C 34513.5 hPa WNW 5.1 km/h 10.3 km/h 71 % 0 mm
04:09 -10.5 °C -13.4 °C 34510.1 hPa WNW 5.1 km/h 10.3 km/h 71 % 0 mm
04:14 -10.4 °C -13.3 °C 34506.7 hPa WNW 5.1 km/h 10.3 km/h 71 % 0 mm
04:19 -10.4 °C -13.3 °C 34506.7 hPa WNW 5.1 km/h 10.3 km/h 71 % 0 mm
04:24 -10.5 °C -13.4 °C 34506.7 hPa WNW 2.6 km/h 7.7 km/h 71 % 0 mm
04:29 -10.5 °C -13.4 °C 34506.7 hPa West 2.6 km/h 7.7 km/h 71 % 0 mm
04:34 -10.5 °C -13.4 °C 34510.1 hPa West 2.6 km/h 10.3 km/h 71 % 0 mm
04:39 -10.6 °C -13.4 °C 34513.5 hPa WNW 2.6 km/h 12.9 km/h 71 % 0 mm
04:44 -10.5 °C -13.4 °C 34510.1 hPa WNW 2.6 km/h 12.9 km/h 71 % 0 mm
04:49 -10.5 °C -13.4 °C 34506.7 hPa WNW 5.1 km/h 12.9 km/h 71 % 0 mm
04:54 -10.5 °C -13.4 °C 34506.7 hPa WNW 5.1 km/h 10.3 km/h 71 % 0 mm
04:59 -10.4 °C -13.3 °C 34506.7 hPa WNW 5.1 km/h 12.9 km/h 71 % 0 mm
05:04 -10.4 °C -13.4 °C 34503.3 hPa WNW 5.1 km/h 15.6 km/h 70 % 0 mm
05:09 -10.4 °C -13.4 °C 34500 hPa WNW 5.1 km/h 23.3 km/h 70 % 0 mm
05:14 -10.3 °C -13.3 °C 34506.7 hPa WNW 7.7 km/h 23.3 km/h 70 % 0 mm
05:19 -10.4 °C -13.4 °C 34506.7 hPa WNW 10.3 km/h 20.8 km/h 70 % 0 mm
05:24 -10.4 °C -13.4 °C 34506.7 hPa WNW 10.3 km/h 15.6 km/h 70 % 0 mm
05:29 -10.4 °C -13.4 °C 34506.7 hPa WNW 7.7 km/h 15.6 km/h 70 % 0 mm
05:34 -10.5 °C -13.4 °C 34503.3 hPa WNW 7.7 km/h 15.6 km/h 71 % 0 mm
05:39 -10.4 °C -13.4 °C 34506.7 hPa WNW 10.3 km/h 20.8 km/h 70 % 0 mm
05:44 -10.5 °C -13.4 °C 34506.7 hPa WNW 10.3 km/h 20.8 km/h 71 % 0 mm
05:49 -10.4 °C -13.3 °C 34503.3 hPa WNW 7.7 km/h 15.6 km/h 71 % 0 mm
05:54 -10.4 °C -13.4 °C 34500 hPa WNW 7.7 km/h 23.3 km/h 70 % 0 mm
05:59 -10.2 °C -13.3 °C 34500 hPa WNW 10.3 km/h 23.3 km/h 69 % 0 mm
06:04 -10.2 °C -13.4 °C 34496.6 hPa WNW 12.9 km/h 23.3 km/h 68 % 0 mm
06:09 -10.3 °C -13.4 °C 34500 hPa WNW 10.3 km/h 20.8 km/h 69 % 0 mm
06:14 -10.4 °C -13.4 °C 34503.3 hPa WNW 10.3 km/h 15.6 km/h 70 % 0 mm
06:19 -10.5 °C -13.4 °C 34506.7 hPa WNW 7.7 km/h 20.8 km/h 71 % 0 mm
06:24 -10.4 °C -13.4 °C 34503.3 hPa WNW 10.3 km/h 23.3 km/h 70 % 0 mm
06:29 -10.3 °C -13.4 °C 34503.3 hPa WNW 10.3 km/h 25.9 km/h 69 % 0 mm
06:35 -10.2 °C -13.3 °C 34503.3 hPa WNW 12.9 km/h 25.9 km/h 69 % 0 mm
06:39 -10.2 °C -13.3 °C 34510.1 hPa WNW 12.9 km/h 18.2 km/h 69 % 0 mm
06:44 -10.3 °C -13.4 °C 34506.7 hPa WNW 10.3 km/h 18.2 km/h 69 % 0 mm
06:49 -10.3 °C -13.4 °C 34510.1 hPa WNW 7.7 km/h 18.2 km/h 69 % 0 mm
06:54 -10.3 °C -13.4 °C 34516.9 hPa WNW 7.7 km/h 23.3 km/h 69 % 0 mm
06:59 -10.3 °C -13.3 °C 34513.5 hPa WNW 10.3 km/h 23.3 km/h 70 % 0 mm
07:04 -10.4 °C -13.4 °C 34516.9 hPa WNW 12.9 km/h 20.8 km/h 70 % 0 mm
07:09 -10.4 °C -13.4 °C 34516.9 hPa WNW 10.3 km/h 25.9 km/h 70 % 0 mm
07:14 -10.4 °C -13.4 °C 34510.1 hPa WNW 12.9 km/h 25.9 km/h 70 % 0 mm
07:19 -10.4 °C -13.4 °C 34513.5 hPa WNW 12.9 km/h 23.3 km/h 70 % 0 mm
07:24 -10.4 °C -13.4 °C 34516.9 hPa WNW 12.9 km/h 28.5 km/h 70 % 0 mm
07:29 -10.4 °C -13.4 °C 34516.9 hPa WNW 12.9 km/h 28.5 km/h 70 % 0 mm
07:34 -10.4 °C -13.4 °C 34523.7 hPa WNW 15.6 km/h 25.9 km/h 70 % 0 mm
07:40 -10.4 °C -13.4 °C 34523.7 hPa WNW 15.6 km/h 25.9 km/h 70 % 0 mm
07:44 -10.5 °C -13.4 °C 34520.3 hPa WNW 10.3 km/h 18.2 km/h 71 % 0 mm
07:49 -10.5 °C -13.4 °C 34523.7 hPa WNW 7.7 km/h 12.9 km/h 71 % 0 mm
07:54 -10.5 °C -13.4 °C 34530.4 hPa WNW 5.1 km/h 20.8 km/h 71 % 0 mm
07:59 -10.5 °C -13.4 °C 34530.4 hPa WNW 7.7 km/h 20.8 km/h 71 % 0 mm
08:04 -10.5 °C -13.2 °C 34530.4 hPa WNW 7.7 km/h 15.6 km/h 72 % 0 mm
08:09 -10.6 °C -13.3 °C 34530.4 hPa WNW 7.7 km/h 15.6 km/h 72 % 0 mm
08:14 -10.5 °C -13.4 °C 34533.8 hPa WNW 7.7 km/h 18.2 km/h 71 % 0 mm
08:19 -10.5 °C -13.4 °C 34533.8 hPa WNW 7.7 km/h 20.8 km/h 71 % 0 mm
08:24 -10.4 °C -13.3 °C 34537.2 hPa WNW 7.7 km/h 20.8 km/h 71 % 0 mm
08:29 -10.4 °C -13.2 °C 34540.6 hPa WNW 7.7 km/h 23.3 km/h 71 % 0 mm
08:34 -10.3 °C -13.3 °C 34550.7 hPa WNW 10.3 km/h 31.1 km/h 70 % 0 mm
08:39 -10.2 °C -13.2 °C 34550.7 hPa WNW 12.9 km/h 31.1 km/h 70 % 0 mm
08:44 -10.2 °C -13.2 °C 34547.4 hPa WNW 18.2 km/h 31.1 km/h 70 % 0 mm
08:49 -10.1 °C -13.2 °C 34550.7 hPa WNW 18.2 km/h 31.1 km/h 69 % 0 mm
08:54 -10.1 °C -13.2 °C 34550.7 hPa WNW 18.2 km/h 31.1 km/h 69 % 0 mm
08:59 -10.1 °C -13.2 °C 34550.7 hPa WNW 18.2 km/h 36.2 km/h 69 % 0 mm
09:04 -10 °C -13.2 °C 34550.7 hPa WNW 18.2 km/h 36.2 km/h 68 % 0 mm
09:09 -9.9 °C -13.2 °C 34554.1 hPa WNW 18.2 km/h 33.6 km/h 68 % 0 mm
09:14 -9.9 °C -13.1 °C 34564.3 hPa WNW 18.2 km/h 33.6 km/h 68 % 0 mm
09:19 -9.8 °C -13.1 °C 34564.3 hPa WNW 18.2 km/h 33.6 km/h 68 % 0 mm
09:24 -9.8 °C -13 °C 34557.5 hPa WNW 18.2 km/h 31.1 km/h 68 % 0 mm
09:29 -9.7 °C -13 °C 34560.9 hPa WNW 18.2 km/h 31.1 km/h 67 % 0 mm
09:34 -9.6 °C -13 °C 34560.9 hPa WNW 18.2 km/h 31.1 km/h 67 % 0 mm
09:39 -9.6 °C -12.9 °C 34560.9 hPa WNW 15.6 km/h 33.6 km/h 67 % 0 mm
09:44 -9.6 °C -12.9 °C 34560.9 hPa WNW 15.6 km/h 33.6 km/h 67 % 0 mm
09:49 -9.5 °C -13 °C 34560.9 hPa WNW 12.9 km/h 28.5 km/h 66 % 0 mm
09:54 -9.4 °C -12.9 °C 34560.9 hPa WNW 12.9 km/h 28.5 km/h 66 % 0 mm
09:59 -9.4 °C -12.9 °C 34560.9 hPa WNW 10.3 km/h 28.5 km/h 66 % 0 mm
10:04 -9.3 °C -12.9 °C 34564.3 hPa WNW 10.3 km/h 28.5 km/h 65 % 0 mm
10:09 -9.3 °C -12.9 °C 34564.3 hPa WNW 10.3 km/h 25.9 km/h 65 % 0 mm
10:14 -9.2 °C -12.9 °C 34560.9 hPa WNW 10.3 km/h 25.9 km/h 65 % 0 mm
10:19 -9.2 °C -12.8 °C 34560.9 hPa WNW 10.3 km/h 25.9 km/h 65 % 0 mm
10:24 -9.2 °C -12.8 °C 34560.9 hPa WNW 10.3 km/h 33.6 km/h 65 % 0 mm
10:29 -9.1 °C -12.7 °C 34560.9 hPa WNW 12.9 km/h 33.6 km/h 65 % 0 mm
Ulpukkaniemen harrastesääasema
Terveisin Weather Underground - 2.25 mb

Alkuperäinen skripti  Jim McMurry - jmcmurry@mwt.net Sovitettu myös templatelle  Wim van der Kuil - Leuven-Template.eu

Laitteet joita käytämme:

Sääasema
WS3083

Sääasemaohjelma
Cumulus

Sääaseman tietokone
RaspberryPI

Palveluntarjoaja
Suncomet

WS3083

Cumulus

RaspberryPI

Suncomet